SCP
0 0 0 0 0 0 0 0 0 0 0 0 0 0 0 0 0 0 0 0 1 1 1 1 1 1 1 1 1 0 0 0 0 0 0 0 0 0 0 0 0 0 0 0 0 0 0 0 0
0 0 0 0 0 0 0 0 0 0 0 0 0 0 0 0 0 0 0 1 1 1 1 1 1 1 1 1 1 1 0 0 0 0 0 0 0 0 0 0 0 0 0 0 0 0 0 0 0
0 0 0 0 0 0 0 0 0 0 0 0 0 0 0 0 0 0 0 1 1 1 1 1 1 1 1 1 1 1 1 0 0 0 0 0 0 0 0 0 0 0 0 0 0 0 0 0 0
0 0 0 0 0 0 0 0 0 0 0 0 0 0 0 0 0 0 0 1 1 1 1 1 1 1 1 1 1 1 1 0 0 0 0 0 0 0 0 0 0 0 0 0 0 0 0 0 0
0 0 0 0 0 0 0 0 0 0 0 0 0 0 0 0 0 0 0 1 1 1 1 1 1 1 1 1 1 1 1 0 0 0 0 0 0 0 0 0 0 0 0 0 0 0 0 0 0
0 0 0 0 0 0 0 0 0 0 0 0 0 0 0 0 0 0 1 1 1 1 1 1 1 1 1 1 1 1 1 0 0 0 0 0 0 0 0 0 0 0 0 0 0 0 0 0 0
0 0 0 0 0 0 0 0 0 0 0 0 0 0 0 0 0 1 1 1 1 1 1 1 1 1 1 1 1 1 1 0 0 0 0 0 0 0 0 0 0 0 0 0 0 0 0 0 0
0 0 0 0 0 0 0 0 0 0 0 0 0 0 0 0 1 1 1 1 1 1 1 1 1 1 1 1 1 1 1 0 0 0 0 0 0 0 0 0 0 0 0 0 0 0 0 0 0
0 0 0 0 0 0 0 0 0 0 0 0 0 0 0 0 1 1 1 1 1 1 1 1 1 1 1 1 1 1 0 0 0 0 0 0 0 0 0 0 0 0 0 0 0 0 0 0 0
0 0 0 0 0 0 0 0 0 0 0 0 0 0 0 0 0 1 1 1 1 1 1 1 1 1 1 1 1 0 0 0 0 0 0 0 0 0 0 0 0 0 0 0 0 0 0 0 0
0 0 0 0 0 0 0 0 0 0 0 0 0 0 0 0 0 0 0 1 1 1 1 1 1 1 1 1 1 1 1 0 0 0 0 0 0 0 0 0 0 0 0 0 0 0 0 0 0
0 0 0 0 0 0 0 0 0 0 0 0 0 0 0 0 0 0 0 1 1 1 1 1 1 1 1 1 1 1 1 1 0 0 0 0 0 0 0 0 0 0 0 0 0 0 0 0 0
0 0 0 0 0 0 0 0 0 0 0 0 0 0 0 0 0 0 0 0 1 1 1 1 1 1 1 1 1 1 1 1 0 0 0 0 0 0 0 0 0 0 0 0 0 0 0 0 0
0 0 0 0 0 0 0 0 0 0 0 0 0 0 0 0 0 0 0 0 0 0 1 1 1 1 1 1 1 1 0 0 0 0 0 0 0 0 0 0 0 0 0 0 0 0 0 0 0
0 0 0 0 0 0 0 0 0 0 0 0 0 0 0 0 0 0 0 0 0 0 0 0 1 1 1 1 1 0 0 0 0 0 0 0 0 0 0 0 0 0 0 0 0 0 0 0 0
0 0 0 0 0 0 0 0 0 0 0 0 0 0 0 0 0 0 0 0 0 0 0 0 0 0 1 1 0 0 0 0 0 0 0 0 0 0 0 0 0 0 0 0 0 0 0 0 0
0 0 0 0 0 0 0 0 0 0 0 0 0 0 0 0 0 0 0 0 0 0 0 0 0 0 0 0 0 0 0 0 0 0 0 0 0 0 0 0 0 0 0 0 0 0 0 0 0
0 0 0 0 0 0 0 0 0 0 0 0 0 0 0 0 0 0 0 0 0 0 0 0 0 0 0 0 0 0 0 0 0 0 0 0 0 0 0 0 0 0 0 0 0 0 0 0 0
0 0 0 0 0 0 0 0 0 0 0 0 0 0 0 0 0 0 0 0 0 0 0 0 0 0 0 0 0 0 0 0 0 0 0 0 0 0 0 0 0 0 0 0 0 0 0 0 0
0 0 0 0 0 0 0 0 0 0 0 0 0 0 0 0 0 0 0 0 0 0 0 0 0 0 0 0 0 0 0 0 0 0 0 0 0 0 0 0 0 0 0 0 0 0 0 0 0
0 0 0 0 0 0 0 0 0 0 0 0 0 0 0 0 0 0 0 0 0 0 0 0 0 0 0 0 0 0 0 0 0 0 0 0 0 0 0 0 0 0 0 0 0 0 0 0 0
0 0 0 0 0 0 0 0 0 0 0 0 0 0 0 0 0 0 0 0 0 0 0 0 0 0 0 0 0 0 0 0 0 0 0 0 0 0 0 0 0 0 0 0 0 0 0 0 0
0 0 0 0 0 0 0 0 0 0 0 0 0 0 0 0 0 0 0 0 0 0 0 0 0 0 0 0 0 0 0 0 0 0 0 0 0 0 0 0 0 0 0 0 0 0 0 0 0
0 0 0 0 0 0 0 0 0 0 0 0 0 0 0 0 0 0 0 0 0 0 0 0 0 0 0 0 0 0 0 0 0 0 0 0 0 0 0 0 0 0 0 0 0 0 0 0 0
0 0 0 0 0 0 0 0 0 0 0 0 0 0 0 0 0 0 0 0 0 0 0 0 0 0 0 0 0 0 0 0 0 0 0 0 0 0 0 0 0 0 0 0 0 0 0 0 0
0 0 0 0 0 0 0 0 0 0 0 0 0 0 0 0 0 0 0 0 0 0 0 0 0 0 0 0 0 0 0 0 0 0 0 0 0 0 0 0 0 0 0 0 0 0 0 0 0
0 0 0 0 0 0 0 0 0 0 0 0 0 0 0 0 0 0 0 0 0 0 0 0 0 0 0 0 0 0 0 0 0 0 0 0 0 0 0 0 0 0 0 0 0 0 0 0 0
0 0 0 0 0 0 0 0 0 0 0 0 0 0 0 0 0 0 0 0 0 0 0 0 0 0 0 0 0 0 0 0 0 0 0 0 0 0 0 0 0 0 0 0 0 0 0 0 0
0 0 0 0 0 0 0 0 0 0 0 0 0 0 0 0 0 0 0 0 0 0 0 0 0 0 0 0 0 0 0 0 0 0 0 0 0 0 0 0 0 0 0 0 0 0 0 0 0
0 0 0 0 0 0 0 0 0 0 0 0 0 0 0 0 0 0 0 0 0 0 0 0 0 0 0 0 0 0 0 0 0 0 0 0 0 0 0 0 0 0 0 0 0 0 0 0 0
Wind_Speed
8 9 7 3 3 5 10 9 6 2 0 3 5 4 4 4 4 7 3 5 10 12 13 12 13 12 12 12 11 11 10 10 10 10 10 9 9 9 9 9 9 8 8 8 8 8 8 8 8
8 8 5 3 5 8 9 9 8 2 3 4 4 3 3 4 7 8 4 6 10 11 12 11 13 12 12 12 11 11 11 10 9 9 9 9 9 9 9 9 9 8 8 8 8 8 8 7 7
10 8 4 4 6 9 6 5 3 3 4 4 2 2 3 4 6 5 5 6 9 10 11 11 13 13 12 12 12 11 10 10 9 9 9 8 8 8 8 8 8 8 7 8 7 7 7 7 7
5 4 5 7 12 10 7 1 3 4 3 3 3 2 4 5 4 5 6 7 9 10 11 11 13 13 12 12 11 11 10 10 10 9 9 8 8 8 8 8 8 7 7 7 7 6 6 6 6
4 4 6 9 13 10 6 1 3 4 3 4 3 3 5 5 7 7 6 7 8 9 10 12 13 13 12 12 11 11 10 10 9 9 8 8 8 8 8 8 8 7 7 6 6 6 6 6 5
4 4 7 10 12 10 6 2 2 3 3 3 3 3 4 5 6 5 6 6 8 9 9 11 12 12 12 12 11 11 10 9 9 9 8 8 8 8 8 7 7 7 6 6 6 6 5 5 5
5 5 9 11 9 8 4 2 3 2 3 3 2 3 5 4 5 5 6 6 8 8 8 8 8 10 11 11 11 10 10 9 9 8 8 8 7 7 7 7 7 6 6 6 5 5 5 4 4
4 4 9 10 9 7 3 2 1 1 1 1 2 3 5 5 4 5 6 6 7 7 7 7 7 7 7 7 10 9 9 9 8 8 7 6 6 7 6 6 6 5 5 5 5 5 4 3 3
4 6 8 9 7 3 2 1 1 2 2 2 4 5 9 9 6 6 5 5 5 6 5 6 5 5 6 6 8 8 8 7 7 7 7 5 3 4 4 5 4 4 4 4 4 3 3 2 2
5 6 9 6 4 1 1 1 1 1 1 2 5 8 11 8 6 5 6 5 5 5 5 5 5 5 4 5 5 4 5 5 4 4 4 2 2 2 3 4 4 3 3 3 3 2 2 1 1
6 7 7 6 4 2 1 0 1 2 2 3 5 7 8 7 5 4 5 5 4 5 4 4 5 4 3 3 3 2 2 3 3 4 3 2 2 2 2 1 2 2 2 1 1 1 1 1 1
8 8 7 5 3 2 1 1 2 2 1 2 5 7 7 6 5 4 4 4 4 5 4 4 4 4 3 2 2 3 2 2 2 3 3 2 2 1 1 1 1 1 0 0 0 1 1 1 1
9 7 6 5 3 2 2 2 2 2 1 3 4 5 6 5 4 4 4 4 5 5 4 4 4 3 3 2 2 3 3 3 3 3 2 3 2 1 1 1 1 1 0 0 1 1 1 1 2
5 5 5 5 4 3 2 3 3 3 2 4 4 4 5 4 4 4 4 4 4 4 4 3 4 3 3 2 1 2 2 2 2 2 2 3 2 1 1 1 1 1 0 0 1 1 1 1 1
5 5 5 7 6 4 3 4 5 4 4 4 4 4 4 4 3 3 4 4 4 4 4 3 3 3 3 3 2 2 2 3 2 2 2 3 2 2 1 1 1 1 0 0 1 1 1 2 2
6 5 6 6 5 4 4 5 5 4 5 5 5 4 4 4 3 3 4 4 4 4 4 3 3 3 3 2 2 2 2 3 2 2 2 2 2 2 1 1 1 1 1 1 1 1 1 1 1
5 6 6 5 5 4 5 4 3 3 4 4 4 4 4 4 3 3 4 4 4 4 4 4 3 2 2 2 2 2 2 2 2 2 2 2 2 2 1 1 1 1 1 1 1 1 1 1 1
6 6 6 5 6 6 6 4 3 3 4 4 4 4 4 4 3 3 4 4 4 4 4 4 3 3 3 2 2 2 2 2 2 2 2 2 2 2 1 1 1 1 1 0 1 1 1 1 1
6 6 6 5 3 5 5 5 5 3 3 3 3 4 4 4 3 3 4 3 4 4 4 4 3 2 3 2 2 2 1 1 1 1 2 2 2 2 1 1 1 1 1 0 1 1 1 1 1
6 5 5 3 2 3 5 6 5 4 5 4 3 4 4 4 4 3 4 3 3 4 4 3 3 3 2 2 1 1 1 1 1 1 2 2 2 1 1 1 1 1 1 1 1 1 1 1 1
6 5 4 2 2 3 3 5 6 4 3 3 3 3 4 4 4 4 3 3 3 3 3 2 2 2 2 2 2 2 2 2 1 1 1 1 2 2 1 1 1 1 1 1 1 1 1 0 1
4 3 3 3 2 3 4 4 6 6 5 4 3 3 4 4 4 4 4 3 2 2 2 2 2 2 2 3 3 3 2 1 1 1 1 1 2 2 1 1 1 1 1 1 1 1 0 1 1
3 4 4 5 3 3 4 3 4 6 5 5 4 4 3 4 5 5 4 3 3 3 2 2 2 2 2 2 2 2 1 1 1 1 1 1 1 1 1 1 1 1 1 1 1 1 1 1 1
3 2 2 3 1 4 6 5 3 4 5 5 4 3 3 4 5 5 4 4 3 3 2 2 2 2 2 2 2 2 2 1 2 1 1 0 1 1 1 1 1 1 1 2 1 1 1 1 1
2 2 1 2 3 5 4 3 2 2 3 4 4 3 3 4 4 5 4 4 3 3 2 2 3 2 2 2 1 1 1 1 2 1 1 1 1 0 1 1 0 0 0 1 1 1 1 1 1
4 3 2 2 3 1 2 3 1 3 4 3 3 4 4 3 3 4 4 4 3 3 3 2 2 2 2 2 1 1 1 1 1 1 0 1 1 1 1 1 1 0 0 0 1 1 2 1 1
2 3 2 1 1 1 3 3 2 3 4 4 4 5 4 4 4 4 4 3 3 2 2 2 2 2 1 1 2 1 1 1 1 1 1 0 0 0 1 1 1 1 0 1 1 1 2 1 2
1 1 1 0 1 2 2 3 2 4 3 3 3 4 4 4 4 3 3 3 3 2 2 2 2 1 1 2 1 2 1 2 1 1 1 1 1 0 1 0 1 1 1 1 1 2 2 2 2
1 1 1 2 2 1 1 0 2 2 4 4 3 3 4 3 3 3 2 2 3 3 2 2 2 2 2 2 2 2 2 2 1 1 1 1 1 0 1 1 0 1 1 1 1 1 1 2 2
1 1 1 1 2 2 1 1 3 4 4 4 4 4 4 4 3 3 3 3 3 2 2 2 2 2 2 2 2 2 2 2 1 1 1 1 1 0 1 1 1 0 0 1 1 1 1 2 2
Wind_Direction
263 252 241 232 223 228 236 238 244 226 204 30 24 27 23 23 43 107 153 110 109 121 129 133 128 126 123 120 116 112 109 107 104 102 99 96 93 89 87 85 82 78 73 72 72 70 68 66 64
265 247 236 229 228 227 229 227 236 210 98 60 32 28 37 62 73 100 108 105 115 122 128 133 128 124 122 120 117 113 111 110 106 104 101 99 95 91 87 84 80 77 74 71 69 68 67 65 60
260 248 230 222 227 231 231 202 184 107 89 94 76 25 42 57 80 96 112 118 115 118 124 128 126 123 121 120 118 116 114 111 108 105 103 101 98 95 89 84 80 76 73 70 66 66 64 61 55
240 221 240 238 236 237 250 192 107 106 110 120 128 92 76 44 59 97 114 115 113 117 122 128 126 125 123 121 120 119 116 114 111 107 104 101 98 94 87 82 79 74 70 68 66 64 62 58 50
238 225 222 233 240 243 251 272 117 133 144 154 155 125 89 68 79 96 101 102 111 116 123 131 128 126 124 123 122 120 118 116 112 108 103 101 97 92 88 83 79 74 70 68 65 63 61 53 44
225 231 224 226 231 233 230 209 189 170 172 168 153 141 107 89 84 95 100 103 105 112 118 132 128 126 125 124 121 119 117 115 113 108 104 102 101 96 91 85 79 74 71 68 64 60 56 49 38
238 239 239 236 232 232 222 180 192 190 176 174 150 131 126 93 90 101 105 105 100 105 114 125 134 130 126 125 123 121 119 117 116 112 106 103 103 101 96 88 80 74 69 65 60 54 50 42 28
258 264 244 240 235 229 204 202 160 177 177 112 96 128 142 124 113 104 103 100 102 105 111 123 129 132 134 131 125 125 124 122 121 118 112 108 109 105 99 92 83 75 69 63 58 49 41 30 13
259 248 238 234 239 227 139 124 50 39 58 40 48 66 113 121 119 114 107 103 105 112 115 118 120 124 130 136 134 132 131 129 128 127 126 123 123 116 108 101 94 83 74 64 56 41 27 14 348
223 237 242 255 272 283 142 137 135 130 140 95 83 89 109 118 125 127 126 123 117 116 118 117 118 117 124 138 138 145 143 141 138 132 134 129 112 107 105 113 114 93 77 62 43 12 359 344 296
222 242 262 284 308 331 311 236 265 197 196 171 136 122 126 130 133 131 130 128 128 121 109 108 115 116 116 129 141 141 136 140 136 133 133 119 106 109 108 121 116 108 95 76 27 335 309 318 336
237 253 267 280 308 313 303 265 273 284 269 112 130 131 131 142 144 138 128 119 112 107 103 101 106 112 114 117 143 140 136 138 138 139 135 121 113 109 116 122 119 120 112 74 284 275 303 335 340
242 251 263 275 284 299 290 258 254 280 37 80 110 132 142 142 144 137 123 114 108 104 103 102 107 113 113 113 143 141 138 141 139 131 136 122 122 131 129 136 121 97 53 37 310 311 353 346 345
243 255 262 271 255 237 232 252 247 239 146 128 138 149 148 152 145 129 118 109 109 109 105 100 105 111 116 118 125 131 138 138 131 132 137 129 123 128 129 120 119 105 49 0 333 331 3 336 340
241 242 244 243 237 225 210 246 232 210 161 151 158 159 149 147 138 130 125 114 114 111 106 105 107 103 112 116 119 122 140 131 132 137 133 122 119 129 130 124 109 101 63 34 5 15 22 3 1
234 230 232 230 217 213 211 230 211 189 162 174 173 161 155 154 149 130 113 111 112 110 103 100 99 103 101 105 118 122 122 124 134 136 129 125 117 110 104 103 106 88 65 44 31 48 36 7 356
216 223 226 227 205 207 212 230 218 188 172 177 171 155 149 151 146 126 110 110 112 113 109 102 93 95 95 99 105 104 105 120 128 125 122 128 125 114 110 113 93 75 69 43 23 29 27 9 357
212 223 232 230 209 204 208 216 220 184 173 183 167 146 138 143 141 118 105 108 107 107 109 106 99 92 91 83 87 86 93 100 105 118 126 127 125 117 106 114 118 101 90 44 40 33 16 10 349
238 237 240 249 231 202 208 216 218 191 172 186 170 149 147 145 125 107 98 90 93 97 100 102 99 99 98 93 94 117 122 115 98 95 108 122 124 123 116 92 117 117 128 136 85 85 46 7 6
250 251 253 261 244 223 211 229 222 187 181 189 180 161 158 141 128 120 113 104 94 97 102 106 101 110 113 102 101 117 123 126 111 95 97 100 100 109 117 124 124 108 99 68 60 66 67 2 13
247 241 250 263 296 253 220 237 218 196 185 189 169 147 142 140 141 137 120 107 100 98 102 103 101 104 102 97 86 76 68 63 60 75 99 114 111 105 122 139 150 136 131 143 161 137 95 181 323
244 250 255 253 243 232 206 230 214 187 188 191 184 164 154 151 144 140 128 113 98 94 96 100 95 96 93 96 99 113 111 132 163 149 144 131 112 110 110 139 150 152 150 156 180 165 187 164 230
256 266 244 248 255 270 233 225 225 174 187 189 185 172 160 151 143 140 133 124 105 92 92 95 99 87 91 96 111 123 117 109 91 95 96 111 131 125 111 112 134 166 175 171 175 196 207 182 202
275 279 252 244 223 241 227 209 228 184 189 172 174 171 150 141 134 133 125 115 102 95 91 87 99 89 79 91 104 105 106 102 96 88 121 131 123 132 114 105 121 150 188 190 188 190 202 217 235
229 131 125 182 200 229 200 200 218 119 126 139 157 156 139 125 129 131 130 130 121 114 102 88 93 87 78 74 69 94 95 113 140 146 166 157 144 162 194 137 151 170 220 199 171 189 211 212 228
229 189 169 200 210 222 171 201 142 75 85 85 107 113 97 106 119 129 135 134 127 123 114 102 97 90 84 75 48 68 66 65 92 104 133 170 173 185 187 157 158 135 274 272 205 205 214 205 225
233 240 296 299 279 236 200 157 122 88 83 86 88 90 82 74 84 92 104 111 111 121 119 111 108 100 100 91 58 63 67 52 50 45 47 60 70 112 107 157 161 168 194 206 208 217 207 199 214
299 297 344 205 218 247 212 179 169 154 139 113 95 93 84 74 71 79 90 97 99 108 112 106 102 108 98 83 66 44 43 46 53 52 42 21 6 63 126 125 160 163 178 202 194 221 206 210 223
156 216 250 252 242 225 213 356 24 115 121 109 88 85 90 85 80 80 79 86 86 82 99 97 81 71 67 68 61 51 40 30 36 52 23 350 350 102 154 151 168 171 185 215 218 235 215 212 223
259 236 207 196 257 247 210 239 34 68 82 90 86 81 82 81 76 73 73 68 74 75 75 81 82 68 51 55 54 49 43 22 17 23 2 352 22 107 157 138 127 171 211 212 218 244 265 223 217